Weather History for Roseburg, OR

Change the Weather History Date:

Wednesday, June 19, 2013

  Actual Average Record
Temperature  
Mean Temperature 60 °F 64 °F  
Max Temperature 67 °F 77 °F 94 °F (1982)
Min Temperature 52 °F 52 °F 40 °F (1942)
Degree Days  
Heating Degree Days 5 2  
Month to date heating degree days 28 65  
Since 1 June heating degree days 28 65  
Since 1 July heating degree days 3624 4048  
Cooling Degree Days 0 2  
Month to date cooling degree days 49 20  
Year to date cooling degree days 83 40  
Since 1 June cooling degree days 49 20  
Growing Degree Days 10 (Base 50)    
Moisture  
Dew Point 47 °F    
Average Humidity 61    
Maximum Humidity 77    
Minimum Humidity 45    
Precipitation  
Precipitation 0.02 in 0.02 in 0.42 in (1937)
Month to date precipitation 0.03 1.00  
Year to date precipitation 7.62 18.63  
Sea Level Pressure  
Sea Level Pressure 30.06 in    
Wind  
Wind Speed 4 mph (SW)    
Max Wind Speed 14 mph    
Max Gust Speed 21 mph    
Visibility 10 miles    
Events Rain    
T = Trace of Precipitation, MM = Missing Value Source: NWS Daily Summary

Daily Weather History Graph

Daily Weather History Graph

Search for Another Location

Airport:

Trip Planner

Search our weather history database for the weather conditions in past years. The results will help you decide how hot, cold, wet, or windy it might be!

Date:

Astronomy

Jun. 19, 2013 Rise Set
Actual Time 5:33 AM PDT 8:56 PM PDT
Civil Twilight 4:57 AM PDT 9:32 PM PDT
Nautical Twilight 4:11 AM PDT 10:18 PM PDT
Astronomical Twilight 3:13 AM PDT 11:16 PM PDT
Moon 4:51 PM PDT (6/19) 2:26 AM PDT (6/19)
Length of Visible Light 16h 34m
Length of Day
15h 23m
Waxing Gibbous, 81% of the Moon is Illuminated
Jun 19
Waxing Gibbous
Jun 23
Full
Jun 29
Last Quarter
Jul 8
New
Jul 15
First Quarter

Hourly Weather History & Observations

Time (PDT) Temp. Dew Point Humidity Pressure Visibility Wind Dir Wind Speed Gust Speed Precip Events Conditions
12:53 AM 57.0 °F 46.0 °F 67% 30.01 in 10.0 mi Calm Calm - N/A   Overcast
1:53 AM 55.9 °F 45.0 °F 67% 30.01 in 10.0 mi Calm Calm - N/A   Overcast
2:53 AM 55.9 °F 46.9 °F 72% 30.01 in 10.0 mi SSE 3.5 mph - N/A   Overcast
3:53 AM 55.0 °F 46.9 °F 74% 30.01 in 10.0 mi South 3.5 mph - 0.00 in   Overcast
4:53 AM 55.0 °F 46.9 °F 74% 30.00 in 10.0 mi South 3.5 mph - N/A   Overcast
5:53 AM 55.0 °F 48.0 °F 77% 30.00 in 10.0 mi Calm Calm - N/A   Overcast
6:29 AM 53.6 °F 48.2 °F 82% 30.02 in 1.8 mi Calm Calm - 0.02 in Rain Rain
6:39 AM 53.6 °F 48.2 °F 82% 30.02 in 3.0 mi Calm Calm - 0.02 in Rain Light Rain
6:48 AM 53.6 °F 48.2 °F 82% 30.02 in 10.0 mi Calm Calm - 0.02 in Rain Light Rain
6:53 AM 53.1 °F 48.9 °F 86% 30.02 in 10.0 mi Calm Calm - 0.02 in Rain Light Rain
7:53 AM 55.0 °F 48.9 °F 80% 30.03 in 10.0 mi SSE 3.5 mph - 0.00 in   Mostly Cloudy
8:35 AM 57.2 °F 50.0 °F 77% 30.04 in 10.0 mi SSE 5.8 mph - N/A   Mostly Cloudy
8:45 AM 57.2 °F 48.2 °F 72% 30.04 in 10.0 mi SSW 4.6 mph - N/A   Overcast
8:53 AM 57.9 °F 48.0 °F 70% 30.04 in 10.0 mi Calm Calm - N/A   Overcast
9:53 AM 59.0 °F 46.9 °F 64% 30.05 in 10.0 mi Variable 3.5 mph - N/A   Mostly Cloudy
10:53 AM 62.1 °F 48.0 °F 60% 30.04 in 10.0 mi Variable 3.5 mph - N/A   Mostly Cloudy
11:53 AM 61.0 °F 46.9 °F 60% 30.05 in 10.0 mi NNW 5.8 mph - 0.00 in Rain Light Rain
12:53 PM 64.0 °F 45.0 °F 50% 30.05 in 10.0 mi NNW 9.2 mph - N/A   Mostly Cloudy
1:53 PM 66.9 °F 46.0 °F 47% 30.05 in 10.0 mi WSW 11.5 mph 20.7 mph N/A   Mostly Cloudy
2:53 PM 66.0 °F 45.0 °F 47% 30.07 in 10.0 mi West 8.1 mph - N/A   Mostly Cloudy
3:53 PM 64.9 °F 45.0 °F 48% 30.08 in 10.0 mi NW 8.1 mph 20.7 mph N/A   Mostly Cloudy
4:53 PM 64.0 °F 46.0 °F 52% 30.09 in 10.0 mi Variable 4.6 mph - N/A   Mostly Cloudy
5:53 PM 64.9 °F 46.0 °F 50% 30.11 in 10.0 mi Variable 6.9 mph - N/A   Overcast
6:53 PM 62.1 °F 45.0 °F 53% 30.12 in 10.0 mi Variable 3.5 mph - N/A   Mostly Cloudy
7:53 PM 61.0 °F 46.0 °F 58% 30.13 in 10.0 mi West 4.6 mph - N/A   Mostly Cloudy
8:53 PM 59.0 °F 46.0 °F 62% 30.13 in 10.0 mi Calm Calm - N/A   Scattered Clouds
9:53 PM 57.0 °F 46.0 °F 67% 30.14 in 10.0 mi Calm Calm - N/A   Partly Cloudy
10:53 PM 55.0 °F 46.9 °F 74% 30.15 in 10.0 mi Calm Calm - N/A   Partly Cloudy
11:53 PM 53.1 °F 46.0 °F 77% 30.14 in 10.0 mi Calm Calm - N/A   Scattered Clouds